map of DME home
Great Circle Mapper logo
DME - Airport
Location
City:  Moscow, Russian Federation (Russia)
Name:Domodedovo International Airport
ICAO / IATA:UUDD / DME

Details
Type:Airport (Aerodrome, Airfield)
Use:Public/Civil, International (customs port of entry)
Latitude:5524'32"N (55.408786)
Longitude:3754'23"E (37.906314)
Datum:WGS 1984
Elevation:588 ft (179 m)
Runways:3
Longest:12448 × 174 ft (3794 × 53 m), paved

Time
Time Zone:UTC+3 (DST+4)

Weather
METAR:UUDD 221300Z 33007MPS 9999 BKN025 M04/M09 Q1014 32290095 82290095 NOSIG
TAF:UUDD 221055Z 2212/2318 34007MPS 8000 BKN015
TEMPO 2212/2218 -SHSN SCT007 BKN015CB
TEMPO 2304/2316 36007G12MPS

Related Locations
Nearby:
Farthest:CHT: 10721 mi / 17254 km
Waitangi [Tuuta], Chatham Islands, NZ

Find:

   beyond  
but within

Other Information
Maps:
NOTAMs:
Links:
Sources:

  
flag of Russian Federation (Russia)
flag of Moscow
  

Sectional Chart

Flight Planning
at skyvector.com

Satellite Image

Google Maps Satellite View

 

Copyright © 2004-2014 Karl L. Swartz. All rights reserved.
The Great Circle Mapper name and logo are trademarks of the Great Circle Mapper.
All other trademarks mentioned herein belong to their respective owners.
Please see credits for attibutions and further copyright information.

  Follow gcmap on Facebook Follow gcmap on Twitter

hCard Microformat

Geo Microformat